Погода в Пуэрто Беррио

Колумбия     6°29′23″N   74°24′16″W
темп.,
°C
ветер,
м/с
пор.,
м/с
влажн.,
%
обл.,
%
осадки,
мм/ч
давл.,
гПа
погр.,
м
29 июня, ср
ср2901:00+21юз26100100 6.9 1014220
04:00+21зюз1299100 4.4 101361
07:00+21зюз009998 4.6 101426
10:00+28юв126947 0.1 1014999
13:00+32вюв225014 0.1 10101653
16:00+31вюв11515 0.0 10071416
19:00+25сз11827 0.2 100917
22:00+23сз1189100 1.2 101228
30 июня, чт
чт3001:00+21зюз1199100 7.1 101138
04:00+21зсз0099100 3.5 101221
07:00+21з1199100 6.1 101228
10:00+23ююз139669 0.1 1012245
13:00+31вюв22515 0.1 10081343
16:00+31всв115365 0.0 10051341
19:00+23ссз1191100 0.5 100822
22:00+22ююв1299100 2.9 101157
1 июля, пт
пт101:00+21з1199100 9.9 101027
04:00+22ю01100100 0.8 101035
07:00+22ююз129976 1.1 1012177
10:00+26ю2273100 0.0 1012662
13:00+31юв2352100 0.0 10081364
16:00+31юв225255 0.0 10051311
19:00+25зсз1181100 0.0 100715
22:00+23зюз119093 0.6 101012
2 июля, сб
сб201:00+22зюз12100100 10.6 101075
04:00+22с1299100 4.4 101053
07:00+22ююз019983 5.4 101290
10:00+24юв119682 1.0 1012466
13:00+31вюв125393 1.3 10091479
16:00+31юв2252100 0.1 10061594
19:00+25сз1185100 0.1 100811
22:00+23зсз1198100 2.2 101123
3 июля, вс
вс301:00+22зсз119995 6.3 101034
04:00+21зюз119940 2.9 101020
07:00+22юз139994 3.3 1013145
10:00+27ююв227121 0.2 1013842
13:00+32ююв245018 0.3 10091764
16:00+31ю245321 0.0 10081363
19:00+25юз277929 0.3 1010258
22:00+21зсз0096100 1.9 101212